Wetterdaten: aktuell Samstag, 20.07.2019 09:30
Datum Zeit Temp. I. Temp. 2m Temp. 5cm LF I. Luftdruck Regen Wind Richtung Richtung Taupunkt Windchill Windben
20.07.2019 09:30 19,4 C 24,1 C 18,9 C 68 % 1021,6 hPa 0,0 l/m 0,0 km/h (0 Bft) N 360 19,2 C 24,1 C 0,0 km/h (0 Bft)
20.07.2019 09:28 19,4 C 24,1 C 18,9 C 68 % 1021,6 hPa 0,0 l/m 0,0 km/h (0 Bft) N 360 19,2 C 24,1 C 0,0 km/h (0 Bft)
20.07.2019 09:26 19,4 C 24,0 C 18,8 C 68 % 1021,6 hPa 0,0 l/m 0,0 km/h (0 Bft) N 360 19,1 C 24,0 C 0,0 km/h (0 Bft)
20.07.2019 09:24 19,4 C 24,0 C 18,8 C 68 % 1021,6 hPa 0,0 l/m 0,0 km/h (0 Bft) N 360 19,1 C 24,0 C 0,0 km/h (0 Bft)
20.07.2019 09:22 19,4 C 23,7 C 18,7 C 68 % 1021,6 hPa 0,0 l/m 0,0 km/h (0 Bft) N 360 18,8 C 23,7 C 0,0 km/h (0 Bft)
20.07.2019 09:20 19,4 C 23,7 C 18,7 C 68 % 1021,5 hPa 0,0 l/m 0,0 km/h (0 Bft) N 360 18,8 C 23,7 C 0,0 km/h (0 Bft)
20.07.2019 09:18 19,2 C 23,7 C 18,8 C 68 % 1021,5 hPa 0,0 l/m 0,0 km/h (0 Bft) N 360 18,8 C 23,7 C 0,0 km/h (0 Bft)
20.07.2019 09:16 19,2 C 23,6 C 18,8 C 68 % 1021,5 hPa 0,0 l/m 0,0 km/h (0 Bft) N 360 18,7 C 23,6 C 0,0 km/h (0 Bft)
20.07.2019 09:14 19,2 C 23,5 C 18,9 C 68 % 1021,5 hPa 0,0 l/m 0,0 km/h (0 Bft) N 360 18,6 C 23,5 C 0,0 km/h (0 Bft)
20.07.2019 09:12 19,2 C 23,4 C 18,9 C 68 % 1021,5 hPa 0,0 l/m 0,0 km/h (0 Bft) N 360 18,5 C 23,4 C 0,0 km/h (0 Bft)
20.07.2019 09:10 19,2 C 23,3 C 18,8 C 68 % 1021,5 hPa 0,0 l/m 0,0 km/h (0 Bft) N 360 18,4 C 23,3 C 0,0 km/h (0 Bft)
20.07.2019 09:08 19,2 C 23,1 C 18,9 C 68 % 1021,5 hPa 0,0 l/m 0,0 km/h (0 Bft) N 360 18,2 C 23,1 C 0,0 km/h (0 Bft)
20.07.2019 09:06 19,3 C 23,1 C 18,8 C 68 % 1021,5 hPa 0,0 l/m 0,0 km/h (0 Bft) N 360 18,2 C 23,1 C 0,0 km/h (0 Bft)
20.07.2019 09:04 19,2 C 23,1 C 18,6 C 68 % 1021,5 hPa 0,0 l/m 0,0 km/h (0 Bft) N 360 18,2 C 23,1 C 0,0 km/h (0 Bft)
20.07.2019 09:02 19,2 C 22,9 C 18,5 C 68 % 1021,5 hPa 0,0 l/m 0,0 km/h (0 Bft) N 360 18,0 C 22,9 C 0,0 km/h (0 Bft)
20.07.2019 09:00 19,2 C 22,9 C 18,4 C 68 % 1021,3 hPa 0,0 l/m 0,0 km/h (0 Bft) N 360 18,0 C 22,9 C 0,0 km/h (0 Bft)
20.07.2019 08:58 19,2 C 22,5 C 18,2 C 68 % 1021,3 hPa 0,0 l/m 0,0 km/h (0 Bft) N 360 17,6 C 22,5 C 0,0 km/h (0 Bft)
20.07.2019 08:56 19,2 C 22,5 C 18,1 C 68 % 1021,3 hPa 0,0 l/m 0,0 km/h (0 Bft) N 360 17,6 C 22,5 C 0,0 km/h (0 Bft)
20.07.2019 08:54 19,2 C 22,3 C 18,2 C 68 % 1021,3 hPa 0,0 l/m 0,0 km/h (0 Bft) N 360 17,4 C 22,3 C 0,0 km/h (0 Bft)
20.07.2019 08:52 19,2 C 22,3 C 18,1 C 68 % 1021,3 hPa 0,0 l/m 0,0 km/h (0 Bft) N 360 17,4 C 22,3 C 0,0 km/h (0 Bft)
20.07.2019 08:50 19,2 C 22,3 C 18,0 C 68 % 1021,3 hPa 0,0 l/m 0,0 km/h (0 Bft) N 360 17,4 C 22,3 C 0,0 km/h (0 Bft)
20.07.2019 08:48 19,1 C 22,2 C 17,7 C 68 % 1021,3 hPa 0,0 l/m 0,0 km/h (0 Bft) N 360 17,3 C 22,2 C 0,0 km/h (0 Bft)
20.07.2019 08:46 19,1 C 22,1 C 17,4 C 68 % 1021,3 hPa 0,0 l/m 0,0 km/h (0 Bft) N 360 17,2 C 22,1 C 0,0 km/h (0 Bft)
20.07.2019 08:44 19,1 C 22,0 C 17,2 C 68 % 1021,3 hPa 0,0 l/m 0,0 km/h (0 Bft) N 360 17,1 C 22,0 C 0,0 km/h (0 Bft)
20.07.2019 08:42 19,1 C 21,7 C 17,1 C 68 % 1021,3 hPa 0,0 l/m 0,0 km/h (0 Bft) N 360 16,9 C 21,7 C 0,0 km/h (0 Bft)
20.07.2019 08:40 19,1 C 21,7 C 17,1 C 68 % 1021,4 hPa 0,0 l/m 0,0 km/h (0 Bft) N 360 16,9 C 21,7 C 0,0 km/h (0 Bft)
20.07.2019 08:38 19,1 C 21,9 C 17,1 C 68 % 1021,4 hPa 0,0 l/m 0,0 km/h (0 Bft) N 360 17,0 C 21,9 C 0,0 km/h (0 Bft)
20.07.2019 08:36 19,1 C 21,9 C 17,1 C 68 % 1021,4 hPa 0,0 l/m 0,0 km/h (0 Bft) N 360 17,0 C 21,9 C 0,0 km/h (0 Bft)
20.07.2019 08:34 19,1 C 21,5 C 17,1 C 68 % 1021,4 hPa 0,0 l/m 0,0 km/h (0 Bft) N 360 16,7 C 21,5 C 0,0 km/h (0 Bft)
20.07.2019 08:32 19,1 C 21,5 C 17,0 C 68 % 1021,4 hPa 0,0 l/m 0,0 km/h (0 Bft) N 360 16,7 C 21,5 C 0,0 km/h (0 Bft)
20.07.2019 08:30 19,1 C 21,2 C 17,0 C 68 % 1021,4 hPa 0,0 l/m 0,0 km/h (0 Bft) N 360 16,4 C 21,2 C 0,0 km/h (0 Bft)
20.07.2019 08:28 19,1 C 21,2 C 17,2 C 68 % 1021,4 hPa 0,0 l/m 0,0 km/h (0 Bft) N 360 16,4 C 21,2 C 0,0 km/h (0 Bft)
20.07.2019 08:26 19,1 C 21,0 C 17,3 C 68 % 1021,4 hPa 0,0 l/m 0,0 km/h (0 Bft) N 360 16,2 C 21,0 C 0,0 km/h (0 Bft)
20.07.2019 08:24 19,1 C 21,0 C 17,2 C 68 % 1021,4 hPa 0,0 l/m 0,0 km/h (0 Bft) N 360 16,2 C 21,0 C 0,0 km/h (0 Bft)
20.07.2019 08:22 19,1 C 20,8 C 16,9 C 68 % 1021,4 hPa 0,0 l/m 0,0 km/h (0 Bft) N 360 16,0 C 20,8 C 0,0 km/h (0 Bft)
20.07.2019 08:20 19,1 C 20,7 C 16,6 C 68 % 1021,4 hPa 0,0 l/m 0,0 km/h (0 Bft) N 360 15,9 C 20,7 C 0,0 km/h (0 Bft)
20.07.2019 08:18 19,1 C 20,5 C 16,6 C 68 % 1021,4 hPa 0,0 l/m 0,0 km/h (0 Bft) N 360 15,7 C 20,5 C 0,0 km/h (0 Bft)
20.07.2019 08:16 19,1 C 20,3 C 16,5 C 68 % 1021,4 hPa 0,0 l/m 0,0 km/h (0 Bft) N 360 15,5 C 20,3 C 0,0 km/h (0 Bft)
20.07.2019 08:14 19,1 C 20,3 C 16,5 C 68 % 1021,4 hPa 0,0 l/m 0,0 km/h (0 Bft) N 360 15,5 C 20,3 C 0,0 km/h (0 Bft)
20.07.2019 08:12 19,1 C 20,2 C 16,5 C 68 % 1021,4 hPa 0,0 l/m 0,0 km/h (0 Bft) N 360 15,4 C 20,2 C 0,0 km/h (0 Bft)
20.07.2019 08:10 19,1 C 20,0 C 16,5 C 68 % 1021,4 hPa 0,0 l/m 0,0 km/h (0 Bft) N 360 15,2 C 20,0 C 0,0 km/h (0 Bft)
20.07.2019 08:08 19,1 C 19,9 C 16,5 C 68 % 1021,4 hPa 0,0 l/m 0,0 km/h (0 Bft) N 360 15,1 C 19,9 C 0,0 km/h (0 Bft)
20.07.2019 08:06 19,1 C 19,9 C 16,5 C 68 % 1021,4 hPa 0,0 l/m 0,0 km/h (0 Bft) N 360 15,1 C 19,9 C 0,0 km/h (0 Bft)
20.07.2019 08:04 19,1 C 19,1 C 16,5 C 68 % 1021,4 hPa 0,0 l/m 0,0 km/h (0 Bft) N 360 14,4 C 19,1 C 0,0 km/h (0 Bft)
20.07.2019 08:02 19,1 C 19,1 C 16,5 C 68 % 1021,4 hPa 0,0 l/m 0,0 km/h (0 Bft) N 360 14,4 C 19,1 C 0,0 km/h (0 Bft)
20.07.2019 08:00 19,1 C 19,1 C 16,4 C 68 % 1021,2 hPa 0,0 l/m 0,0 km/h (0 Bft) N 360 14,4 C 19,1 C 0,0 km/h (0 Bft)
20.07.2019 07:58 19,1 C 19,1 C 16,4 C 68 % 1021,2 hPa 0,0 l/m 0,0 km/h (0 Bft) N 360 14,4 C 19,1 C 0,0 km/h (0 Bft)
20.07.2019 07:56 19,1 C 18,7 C 16,5 C 68 % 1021,2 hPa 0,0 l/m 0,0 km/h (0 Bft) N 360 14,0 C 18,7 C 0,0 km/h (0 Bft)
20.07.2019 07:54 19,1 C 18,4 C 16,5 C 68 % 1021,2 hPa 0,0 l/m 0,0 km/h (0 Bft) N 360 13,7 C 18,4 C 0,0 km/h (0 Bft)
20.07.2019 07:52 19,1 C 18,4 C 16,3 C 68 % 1021,2 hPa 0,0 l/m 0,0 km/h (0 Bft) N 360 13,7 C 18,4 C 0,0 km/h (0 Bft)
20.07.2019 07:50 19,1 C 18,4 C 16,2 C 68 % 1021,2 hPa 0,0 l/m 0,0 km/h (0 Bft) N 360 13,7 C 18,4 C 0,0 km/h (0 Bft)
20.07.2019 07:48 19,1 C 18,4 C 16,2 C 68 % 1021,2 hPa 0,0 l/m 0,0 km/h (0 Bft) N 360 13,7 C 18,4 C 0,0 km/h (0 Bft)
20.07.2019 07:46 19,1 C 18,4 C 16,4 C 68 % 1021,2 hPa 0,0 l/m 0,0 km/h (0 Bft) N 360 13,7 C 18,4 C 0,0 km/h (0 Bft)
20.07.2019 07:44 19,1 C 18,4 C 16,2 C 68 % 1021,2 hPa 0,0 l/m 0,0 km/h (0 Bft) N 360 13,7 C 18,4 C 0,0 km/h (0 Bft)
20.07.2019 07:42 19,2 C 18,5 C 16,2 C 68 % 1021,2 hPa 0,0 l/m 0,0 km/h (0 Bft) N 360 13,8 C 18,5 C 0,0 km/h (0 Bft)
20.07.2019 07:40 19,1 C 18,3 C 16,2 C 68 % 1021,2 hPa 0,0 l/m 0,0 km/h (0 Bft) N 360 13,6 C 18,3 C 0,0 km/h (0 Bft)
20.07.2019 07:38 19,1 C 17,8 C 16,1 C 68 % 1021,2 hPa 0,0 l/m 0,0 km/h (0 Bft) N 360 13,1 C 17,8 C 0,0 km/h (0 Bft)
20.07.2019 07:36 19,2 C 17,8 C 16,0 C 68 % 1021,2 hPa 0,0 l/m 0,0 km/h (0 Bft) N 360 13,1 C 17,8 C 0,0 km/h (0 Bft)
20.07.2019 07:34 19,1 C 17,8 C 16,0 C 68 % 1021,2 hPa 0,0 l/m 0,0 km/h (0 Bft) N 360 13,1 C 17,8 C 0,0 km/h (0 Bft)
20.07.2019 07:32 19,1 C 17,7 C 16,0 C 68 % 1021,2 hPa 0,0 l/m 0,0 km/h (0 Bft) N 360 13,0 C 17,7 C 0,0 km/h (0 Bft)
20.07.2019 07:30 19,1 C 17,7 C 16,0 C 68 % 1021,2 hPa 0,0 l/m 0,0 km/h (0 Bft) N 360 13,0 C 17,7 C 0,0 km/h (0 Bft)
20.07.2019 07:28 19,2 C 17,7 C 16,0 C 68 % 1021,2 hPa 0,0 l/m 0,0 km/h (0 Bft) N 360 13,0 C 17,7 C 0,0 km/h (0 Bft)
20.07.2019 07:26 19,2 C 17,7 C 16,1 C 68 % 1021,2 hPa 0,0 l/m 0,0 km/h (0 Bft) N 360 13,0 C 17,7 C 0,0 km/h (0 Bft)
20.07.2019 07:24 19,2 C 17,7 C 16,0 C 68 % 1021,2 hPa 0,0 l/m 0,0 km/h (0 Bft) N 360 13,0 C 17,7 C 0,0 km/h (0 Bft)
20.07.2019 07:22 19,1 C 17,6 C 15,8 C 68 % 1021,2 hPa 0,0 l/m 0,0 km/h (0 Bft) N 360 12,9 C 17,6 C 0,0 km/h (0 Bft)
20.07.2019 07:20 19,1 C 17,5 C 15,8 C 68 % 1021,3 hPa 0,0 l/m 0,0 km/h (0 Bft) N 360 12,8 C 17,5 C 0,0 km/h (0 Bft)
20.07.2019 07:18 19,2 C 17,5 C 15,9 C 68 % 1021,3 hPa 0,0 l/m 0,0 km/h (0 Bft) N 360 12,8 C 17,5 C 0,0 km/h (0 Bft)
20.07.2019 07:16 19,2 C 17,2 C 15,9 C 68 % 1021,3 hPa 0,0 l/m 0,0 km/h (0 Bft) N 360 12,5 C 17,2 C 0,0 km/h (0 Bft)
20.07.2019 07:14 19,2 C 17,2 C 15,9 C 68 % 1021,3 hPa 0,0 l/m 0,0 km/h (0 Bft) N 360 12,5 C 17,2 C 0,0 km/h (0 Bft)
20.07.2019 07:12 19,2 C 16,6 C 15,8 C 68 % 1021,3 hPa 0,0 l/m 0,0 km/h (0 Bft) N 360 11,9 C 16,6 C 0,0 km/h (0 Bft)
20.07.2019 07:10 19,2 C 16,6 C 15,7 C 68 % 1021,3 hPa 0,0 l/m 0,0 km/h (0 Bft) N 360 11,9 C 16,6 C 0,0 km/h (0 Bft)
20.07.2019 07:08 19,2 C 16,6 C 15,7 C 68 % 1021,3 hPa 0,0 l/m 0,0 km/h (0 Bft) N 360 11,9 C 16,6 C 0,0 km/h (0 Bft)
20.07.2019 07:06 19,2 C 16,6 C 15,7 C 68 % 1021,3 hPa 0,0 l/m 0,0 km/h (0 Bft) N 360 11,9 C 16,6 C 0,0 km/h (0 Bft)
20.07.2019 07:04 19,2 C 16,6 C 15,6 C 68 % 1021,3 hPa 0,0 l/m 0,0 km/h (0 Bft) N 360 11,9 C 16,6 C 0,0 km/h (0 Bft)
20.07.2019 07:02 19,2 C 16,6 C 15,6 C 68 % 1021,3 hPa 0,0 l/m 0,0 km/h (0 Bft) N 360 11,9 C 16,6 C 0,0 km/h (0 Bft)
20.07.2019 07:00 19,2 C 16,4 C 15,5 C 68 % 1021,2 hPa 0,0 l/m 0,0 km/h (0 Bft) N 360 11,8 C 16,4 C 0,0 km/h (0 Bft)
20.07.2019 06:58 19,2 C 16,4 C 15,5 C 68 % 1021,2 hPa 0,0 l/m 0,0 km/h (0 Bft) N 360 11,8 C 16,4 C 0,0 km/h (0 Bft)
20.07.2019 06:56 19,2 C 16,2 C 15,4 C 68 % 1021,2 hPa 0,0 l/m 0,0 km/h (0 Bft) N 360 11,6 C 16,2 C 0,0 km/h (0 Bft)
20.07.2019 06:54 19,2 C 16,2 C 15,4 C 68 % 1021,2 hPa 0,0 l/m 0,0 km/h (0 Bft) N 360 11,6 C 16,2 C 0,0 km/h (0 Bft)
20.07.2019 06:52 19,2 C 16,2 C 15,3 C 68 % 1021,2 hPa 0,0 l/m 0,0 km/h (0 Bft) N 360 11,6 C 16,2 C 0,0 km/h (0 Bft)
20.07.2019 06:50 19,2 C 16,0 C 15,3 C 68 % 1021,2 hPa 0,0 l/m 0,0 km/h (0 Bft) N 360 11,4 C 16,0 C 0,0 km/h (0 Bft)
20.07.2019 06:48 19,2 C 16,0 C 15,3 C 68 % 1021,2 hPa 0,0 l/m 0,0 km/h (0 Bft) N 360 11,4 C 16,0 C 0,0 km/h (0 Bft)
20.07.2019 06:46 19,2 C 15,9 C 15,3 C 68 % 1021,2 hPa 0,0 l/m 0,0 km/h (0 Bft) N 360 11,3 C 15,9 C 0,0 km/h (0 Bft)
20.07.2019 06:44 19,2 C 15,9 C 15,3 C 68 % 1021,2 hPa 0,0 l/m 0,0 km/h (0 Bft) N 360 11,3 C 15,9 C 0,0 km/h (0 Bft)
20.07.2019 06:42 19,2 C 15,9 C 15,1 C 68 % 1021,2 hPa 0,0 l/m 0,0 km/h (0 Bft) N 360 11,3 C 15,9 C 0,0 km/h (0 Bft)
20.07.2019 06:40 19,2 C 15,9 C 15,0 C 68 % 1021,3 hPa 0,0 l/m 0,0 km/h (0 Bft) N 360 11,3 C 15,9 C 0,0 km/h (0 Bft)
20.07.2019 06:38 19,2 C 15,8 C 15,0 C 68 % 1021,3 hPa 0,0 l/m 0,0 km/h (0 Bft) N 360 11,2 C 15,8 C 0,0 km/h (0 Bft)
20.07.2019 06:36 19,2 C 15,8 C 15,0 C 68 % 1021,3 hPa 0,0 l/m 0,0 km/h (0 Bft) N 360 11,2 C 15,8 C 0,0 km/h (0 Bft)
20.07.2019 06:34 19,2 C 15,8 C 15,0 C 68 % 1021,3 hPa 0,0 l/m 0,0 km/h (0 Bft) N 360 11,2 C 15,8 C 0,0 km/h (0 Bft)
20.07.2019 06:32 19,2 C 15,8 C 15,0 C 68 % 1021,3 hPa 0,0 l/m 0,0 km/h (0 Bft) N 360 11,2 C 15,8 C 0,0 km/h (0 Bft)
20.07.2019 06:30 19,2 C 15,8 C 14,9 C 68 % 1021,3 hPa 0,0 l/m 0,0 km/h (0 Bft) N 360 11,2 C 15,8 C 0,0 km/h (0 Bft)
20.07.2019 06:28 19,2 C 15,8 C 14,8 C 68 % 1021,3 hPa 0,0 l/m 0,0 km/h (0 Bft) N 360 11,2 C 15,8 C 0,0 km/h (0 Bft)
20.07.2019 06:26 19,2 C 15,8 C 14,7 C 68 % 1021,3 hPa 0,0 l/m 0,0 km/h (0 Bft) N 360 11,2 C 15,8 C 0,0 km/h (0 Bft)
20.07.2019 06:24 19,2 C 16,2 C 14,7 C 68 % 1021,3 hPa 0,0 l/m 0,0 km/h (0 Bft) N 360 11,6 C 16,2 C 0,0 km/h (0 Bft)
20.07.2019 06:22 19,2 C 16,5 C 14,7 C 68 % 1021,3 hPa 0,0 l/m 0,0 km/h (0 Bft) N 360 11,8 C 16,5 C 0,0 km/h (0 Bft)
20.07.2019 06:20 19,2 C 16,5 C 14,6 C 68 % 1021,2 hPa 0,0 l/m 0,0 km/h (0 Bft) N 360 11,8 C 16,5 C 0,0 km/h (0 Bft)
20.07.2019 06:18 19,2 C 16,5 C 14,6 C 68 % 1021,2 hPa 0,0 l/m 0,0 km/h (0 Bft) N 360 11,8 C 16,5 C 0,0 km/h (0 Bft)
20.07.2019 06:16 19,2 C 16,5 C 14,6 C 68 % 1021,2 hPa 0,0 l/m 0,0 km/h (0 Bft) N 360 11,8 C 16,5 C 0,0 km/h (0 Bft)
20.07.2019 06:14 19,2 C 16,5 C 14,5 C 68 % 1021,2 hPa 0,0 l/m 0,0 km/h (0 Bft) N 360 11,8 C 16,5 C 0,0 km/h (0 Bft)
20.07.2019 06:12 19,2 C 15,4 C 14,5 C 68 % 1021,2 hPa 0,0 l/m 0,0 km/h (0 Bft) N 360 10,8 C 15,4 C 0,0 km/h (0 Bft)
20.07.2019 06:10 19,2 C 15,4 C 14,5 C 68 % 1021,2 hPa 0,0 l/m 0,0 km/h (0 Bft) N 360 10,8 C 15,4 C 0,0 km/h (0 Bft)
20.07.2019 06:08 19,2 C 15,4 C 14,5 C 68 % 1021,2 hPa 0,0 l/m 0,0 km/h (0 Bft) N 360 10,8 C 15,4 C 0,0 km/h (0 Bft)
20.07.2019 06:06 19,2 C 15,2 C 14,5 C 68 % 1021,2 hPa 0,0 l/m 0,0 km/h (0 Bft) N 360 10,6 C 15,2 C 0,0 km/h (0 Bft)
20.07.2019 06:04 19,2 C 15,0 C 14,5 C 68 % 1021,2 hPa 0,0 l/m 0,0 km/h (0 Bft) N 360 10,4 C 15,0 C 0,0 km/h (0 Bft)
20.07.2019 06:02 19,2 C 15,0 C 14,4 C 68 % 1021,2 hPa 0,0 l/m 0,0 km/h (0 Bft) N 360 10,4 C 15,0 C 0,0 km/h (0 Bft)
20.07.2019 06:00 19,2 C 15,0 C 14,4 C 68 % 1021,4 hPa 0,0 l/m 0,0 km/h (0 Bft) N 360 10,4 C 15,0 C 0,0 km/h (0 Bft)
20.07.2019 05:58 19,2 C 15,0 C 14,4 C 68 % 1021,4 hPa 0,0 l/m 0,0 km/h (0 Bft) N 360 10,4 C 15,0 C 0,0 km/h (0 Bft)
20.07.2019 05:56 19,2 C 14,9 C 14,4 C 68 % 1021,4 hPa 0,0 l/m 0,0 km/h (0 Bft) N 360 10,3 C 14,9 C 0,0 km/h (0 Bft)
20.07.2019 05:54 19,2 C 15,1 C 14,4 C 68 % 1021,4 hPa 0,0 l/m 0,0 km/h (0 Bft) N 360 10,5 C 15,1 C 0,0 km/h (0 Bft)
20.07.2019 05:52 19,2 C 15,1 C 14,4 C 68 % 1021,4 hPa 0,0 l/m 0,0 km/h (0 Bft) N 360 10,5 C 15,1 C 0,0 km/h (0 Bft)
20.07.2019 05:50 19,2 C 15,1 C 14,4 C 68 % 1021,4 hPa 0,0 l/m 0,0 km/h (0 Bft) N 360 10,5 C 15,1 C 0,0 km/h (0 Bft)
20.07.2019 05:48 19,2 C 14,8 C 14,2 C 68 % 1021,4 hPa 0,0 l/m 0,0 km/h (0 Bft) N 360 10,2 C 14,8 C 0,0 km/h (0 Bft)
20.07.2019 05:46 19,2 C 14,8 C 14,2 C 68 % 1021,4 hPa 0,0 l/m 0,0 km/h (0 Bft) N 360 10,2 C 14,8 C 0,0 km/h (0 Bft)
20.07.2019 05:44 19,2 C 14,6 C 14,2 C 68 % 1021,4 hPa 0,0 l/m 0,0 km/h (0 Bft) N 360 10,0 C 14,6 C 0,0 km/h (0 Bft)
20.07.2019 05:42 19,2 C 14,6 C 14,2 C 68 % 1021,4 hPa 0,0 l/m 0,0 km/h (0 Bft) N 360 10,0 C 14,6 C 0,0 km/h (0 Bft)
20.07.2019 05:40 19,2 C 14,6 C 14,2 C 68 % 1021,2 hPa 0,0 l/m 0,0 km/h (0 Bft) N 360 10,0 C 14,6 C 0,0 km/h (0 Bft)
20.07.2019 05:38 19,2 C 14,7 C 14,2 C 68 % 1021,2 hPa 0,0 l/m 0,0 km/h (0 Bft) N 360 10,1 C 14,7 C 0,0 km/h (0 Bft)
20.07.2019 05:36 19,2 C 14,7 C 14,2 C 68 % 1021,2 hPa 0,0 l/m 0,0 km/h (0 Bft) N 360 10,1 C 14,7 C 0,0 km/h (0 Bft)
20.07.2019 05:34 19,2 C 14,7 C 14,3 C 68 % 1021,2 hPa 0,0 l/m 0,0 km/h (0 Bft) N 360 10,1 C 14,7 C 0,0 km/h (0 Bft)
20.07.2019 05:32 19,2 C 14,7 C 14,3 C 68 % 1021,2 hPa 0,0 l/m 0,0 km/h (0 Bft) N 360 10,1 C 14,7 C 0,0 km/h (0 Bft)
20.07.2019 05:30 19,2 C 14,7 C 14,3 C 68 % 1021,2 hPa 0,0 l/m 0,0 km/h (0 Bft) N 360 10,1 C 14,7 C 0,0 km/h (0 Bft)
20.07.2019 05:28 19,2 C 14,7 C 14,3 C 68 % 1021,2 hPa 0,0 l/m 0,0 km/h (0 Bft) N 360 10,1 C 14,7 C 0,0 km/h (0 Bft)
20.07.2019 05:26 19,2 C 14,7 C 14,3 C 68 % 1021,2 hPa 0,0 l/m 0,0 km/h (0 Bft) N 360 10,1 C 14,7 C 0,0 km/h (0 Bft)
20.07.2019 05:24 19,2 C 14,7 C 14,4 C 68 % 1021,2 hPa 0,0 l/m 0,0 km/h (0 Bft) N 360 10,1 C 14,7 C 0,0 km/h (0 Bft)
20.07.2019 05:22 19,2 C 14,7 C 14,4 C 68 % 1021,2 hPa 0,0 l/m 0,0 km/h (0 Bft) N 360 10,1 C 14,7 C 0,0 km/h (0 Bft)
20.07.2019 05:20 19,2 C 14,6 C 14,4 C 68 % 1021,2 hPa 0,0 l/m 0,0 km/h (0 Bft) N 360 10,0 C 14,6 C 0,0 km/h (0 Bft)
20.07.2019 05:18 19,2 C 14,6 C 14,5 C 68 % 1021,2 hPa 0,0 l/m 0,0 km/h (0 Bft) N 360 10,0 C 14,6 C 0,0 km/h (0 Bft)
20.07.2019 05:16 19,2 C 14,6 C 14,5 C 68 % 1021,2 hPa 0,0 l/m 0,0 km/h (0 Bft) N 360 10,0 C 14,6 C 0,0 km/h (0 Bft)
20.07.2019 05:14 19,2 C 14,6 C 14,4 C 68 % 1021,2 hPa 0,0 l/m 0,0 km/h (0 Bft) N 360 10,0 C 14,6 C 0,0 km/h (0 Bft)
20.07.2019 05:12 19,2 C 14,6 C 14,4 C 68 % 1021,2 hPa 0,0 l/m 0,0 km/h (0 Bft) N 360 10,0 C 14,6 C 0,0 km/h (0 Bft)
20.07.2019 05:10 19,2 C 14,6 C 14,4 C 68 % 1021,2 hPa 0,0 l/m 0,0 km/h (0 Bft) N 360 10,0 C 14,6 C 0,0 km/h (0 Bft)
20.07.2019 05:08 19,2 C 14,6 C 14,3 C 68 % 1021,2 hPa 0,0 l/m 0,0 km/h (0 Bft) N 360 10,0 C 14,6 C 0,0 km/h (0 Bft)
20.07.2019 05:06 19,2 C 14,6 C 14,2 C 68 % 1021,2 hPa 0,0 l/m 0,0 km/h (0 Bft) N 360 10,0 C 14,6 C 0,0 km/h (0 Bft)
20.07.2019 05:04 19,2 C 14,6 C 14,2 C 68 % 1021,2 hPa 0,0 l/m 0,0 km/h (0 Bft) N 360 10,0 C 14,6 C 0,0 km/h (0 Bft)
20.07.2019 05:01 19,2 C 14,6 C 14,1 C 68 % 1021,2 hPa 0,0 l/m 0,0 km/h (0 Bft) N 360 10,0 C 14,6 C 0,0 km/h (0 Bft)
20.07.2019 05:00 19,2 C 14,7 C 14,1 C 68 % 1021,2 hPa 0,0 l/m 0,0 km/h (0 Bft) N 360 10,1 C 14,7 C 0,0 km/h (0 Bft)
20.07.2019 04:58 19,3 C 14,7 C 14,2 C 68 % 1021,2 hPa 0,0 l/m 0,0 km/h (0 Bft) N 360 10,1 C 14,7 C 0,0 km/h (0 Bft)
20.07.2019 04:56 19,2 C 14,7 C 14,1 C 68 % 1021,2 hPa 0,0 l/m 0,0 km/h (0 Bft) N 360 10,1 C 14,7 C 0,0 km/h (0 Bft)
20.07.2019 04:54 19,2 C 14,7 C 14,1 C 68 % 1021,2 hPa 0,0 l/m 0,0 km/h (0 Bft) N 360 10,1 C 14,7 C 0,0 km/h (0 Bft)
20.07.2019 04:52 19,3 C 14,8 C 14,2 C 68 % 1021,2 hPa 0,0 l/m 0,0 km/h (0 Bft) N 360 10,2 C 14,8 C 0,0 km/h (0 Bft)
20.07.2019 04:50 19,3 C 14,8 C 14,2 C 68 % 1021,2 hPa 0,0 l/m 0,0 km/h (0 Bft) N 360 10,2 C 14,8 C 0,0 km/h (0 Bft)
20.07.2019 04:48 19,2 C 14,8 C 14,3 C 68 % 1021,2 hPa 0,0 l/m 0,0 km/h (0 Bft) N 360 10,2 C 14,8 C 0,0 km/h (0 Bft)
20.07.2019 04:46 19,3 C 14,8 C 14,2 C 68 % 1021,2 hPa 0,0 l/m 0,0 km/h (0 Bft) N 360 10,2 C 14,8 C 0,0 km/h (0 Bft)
20.07.2019 04:44 19,3 C 14,8 C 14,2 C 68 % 1021,2 hPa 0,0 l/m 0,0 km/h (0 Bft) N 360 10,2 C 14,8 C 0,0 km/h (0 Bft)
20.07.2019 04:42 19,2 C 14,8 C 14,2 C 68 % 1021,2 hPa 0,0 l/m 0,0 km/h (0 Bft) N 360 10,2 C 14,8 C 0,0 km/h (0 Bft)
20.07.2019 04:40 19,2 C 14,8 C 14,2 C 68 % 1021,1 hPa 0,0 l/m 0,0 km/h (0 Bft) N 360 10,2 C 14,8 C 0,0 km/h (0 Bft)
20.07.2019 04:38 19,3 C 14,9 C 14,3 C 68 % 1021,1 hPa 0,0 l/m 0,0 km/h (0 Bft) N 360 10,3 C 14,9 C 0,0 km/h (0 Bft)
20.07.2019 04:36 19,3 C 14,9 C 14,3 C 68 % 1021,1 hPa 0,0 l/m 0,0 km/h (0 Bft) N 360 10,3 C 14,9 C 0,0 km/h (0 Bft)
20.07.2019 04:34 19,3 C 14,9 C 14,3 C 68 % 1021,1 hPa 0,0 l/m 0,0 km/h (0 Bft) N 360 10,3 C 14,9 C 0,0 km/h (0 Bft)
20.07.2019 04:32 19,3 C 14,9 C 14,3 C 68 % 1021,1 hPa 0,0 l/m 0,0 km/h (0 Bft) N 360 10,3 C 14,9 C 0,0 km/h (0 Bft)
20.07.2019 04:30 19,3 C 15,0 C 14,5 C 68 % 1021,1 hPa 0,0 l/m 0,0 km/h (0 Bft) N 360 10,4 C 15,0 C 0,0 km/h (0 Bft)
20.07.2019 04:28 19,3 C 15,0 C 14,5 C 68 % 1021,1 hPa 0,0 l/m 0,0 km/h (0 Bft) N 360 10,4 C 15,0 C 0,0 km/h (0 Bft)
20.07.2019 04:26 19,3 C 14,9 C 14,4 C 68 % 1021,1 hPa 0,0 l/m 0,0 km/h (0 Bft) N 360 10,3 C 14,9 C 0,0 km/h (0 Bft)
20.07.2019 04:24 19,3 C 14,9 C 14,4 C 68 % 1021,1 hPa 0,0 l/m 0,0 km/h (0 Bft) N 360 10,3 C 14,9 C 0,0 km/h (0 Bft)
20.07.2019 04:22 19,2 C 14,9 C 14,4 C 68 % 1021,1 hPa 0,0 l/m 0,0 km/h (0 Bft) N 360 10,3 C 14,9 C 0,0 km/h (0 Bft)
20.07.2019 04:20 19,3 C 14,9 C 14,4 C 68 % 1021,1 hPa 0,0 l/m 0,0 km/h (0 Bft) N 360 10,3 C 14,9 C 0,0 km/h (0 Bft)
20.07.2019 04:18 19,3 C 15,0 C 14,3 C 68 % 1021,1 hPa 0,0 l/m 0,0 km/h (0 Bft) N 360 10,4 C 15,0 C 0,0 km/h (0 Bft)
20.07.2019 04:16 19,2 C 15,0 C 14,3 C 68 % 1021,1 hPa 0,0 l/m 0,0 km/h (0 Bft) N 360 10,4 C 15,0 C 0,0 km/h (0 Bft)
20.07.2019 04:14 19,3 C 15,0 C 14,2 C 68 % 1021,1 hPa 0,0 l/m 0,0 km/h (0 Bft) N 360 10,4 C 15,0 C 0,0 km/h (0 Bft)
20.07.2019 04:12 19,2 C 15,0 C 14,2 C 68 % 1021,1 hPa 0,0 l/m 0,0 km/h (0 Bft) N 360 10,4 C 15,0 C 0,0 km/h (0 Bft)
20.07.2019 04:10 19,3 C 15,1 C 14,2 C 68 % 1021,1 hPa 0,0 l/m 0,0 km/h (0 Bft) N 360 10,5 C 15,1 C 0,0 km/h (0 Bft)
20.07.2019 04:08 19,3 C 15,2 C 14,2 C 68 % 1021,1 hPa 0,0 l/m 0,0 km/h (0 Bft) N 360 10,6 C 15,2 C 0,0 km/h (0 Bft)
20.07.2019 04:06 19,2 C 15,2 C 14,3 C 68 % 1021,1 hPa 0,0 l/m 0,0 km/h (0 Bft) N 360 10,6 C 15,2 C 0,0 km/h (0 Bft)
20.07.2019 04:04 19,2 C 15,2 C 14,3 C 68 % 1021,1 hPa 0,0 l/m 0,0 km/h (0 Bft) N 360 10,6 C 15,2 C 0,0 km/h (0 Bft)
20.07.2019 04:02 19,2 C 15,2 C 14,3 C 68 % 1021,1 hPa 0,0 l/m 0,0 km/h (0 Bft) N 360 10,6 C 15,2 C 0,0 km/h (0 Bft)
20.07.2019 04:00 19,2 C 15,2 C 14,4 C 68 % 1021,2 hPa 0,0 l/m 0,0 km/h (0 Bft) N 360 10,6 C 15,2 C 0,0 km/h (0 Bft)
20.07.2019 03:58 19,2 C 15,3 C 14,4 C 68 % 1021,2 hPa 0,0 l/m 0,0 km/h (0 Bft) N 360 10,7 C 15,3 C 0,0 km/h (0 Bft)
20.07.2019 03:56 19,2 C 15,3 C 14,4 C 68 % 1021,2 hPa 0,0 l/m 0,0 km/h (0 Bft) N 360 10,7 C 15,3 C 0,0 km/h (0 Bft)
20.07.2019 03:54 19,2 C 15,3 C 14,5 C 68 % 1021,2 hPa 0,0 l/m 0,0 km/h (0 Bft) N 360 10,7 C 15,3 C 0,0 km/h (0 Bft)
20.07.2019 03:52 19,2 C 15,3 C 14,6 C 68 % 1021,2 hPa 0,0 l/m 0,0 km/h (0 Bft) N 360 10,7 C 15,3 C 0,0 km/h (0 Bft)
20.07.2019 03:50 19,2 C 15,3 C 14,6 C 68 % 1021,2 hPa 0,0 l/m 0,0 km/h (0 Bft) N 360 10,7 C 15,3 C 0,0 km/h (0 Bft)
20.07.2019 03:48 19,2 C 15,4 C 14,5 C 68 % 1021,2 hPa 0,0 l/m 0,0 km/h (0 Bft) N 360 10,8 C 15,4 C 0,0 km/h (0 Bft)
20.07.2019 03:46 19,2 C 15,4 C 14,5 C 68 % 1021,2 hPa 0,0 l/m 0,0 km/h (0 Bft) N 360 10,8 C 15,4 C 0,0 km/h (0 Bft)
20.07.2019 03:44 19,2 C 15,6 C 14,5 C 68 % 1021,2 hPa 0,0 l/m 0,0 km/h (0 Bft) N 360 11,0 C 15,6 C 0,0 km/h (0 Bft)
20.07.2019 03:42 19,2 C 15,6 C 14,6 C 68 % 1021,2 hPa 0,0 l/m 0,0 km/h (0 Bft) N 360 11,0 C 15,6 C 0,0 km/h (0 Bft)
20.07.2019 03:40 19,2 C 15,6 C 14,6 C 68 % 1021,1 hPa 0,0 l/m 0,0 km/h (0 Bft) N 360 11,0 C 15,6 C 0,0 km/h (0 Bft)
20.07.2019 03:38 19,2 C 15,6 C 14,6 C 68 % 1021,1 hPa 0,0 l/m 0,0 km/h (0 Bft) N 360 11,0 C 15,6 C 0,0 km/h (0 Bft)
20.07.2019 03:36 19,2 C 15,6 C 14,6 C 68 % 1021,1 hPa 0,0 l/m 0,0 km/h (0 Bft) N 360 11,0 C 15,6 C 0,0 km/h (0 Bft)
20.07.2019 03:34 19,2 C 15,6 C 14,7 C 68 % 1021,1 hPa 0,0 l/m 0,0 km/h (0 Bft) N 360 11,0 C 15,6 C 0,0 km/h (0 Bft)
20.07.2019 03:32 19,2 C 15,6 C 14,7 C 68 % 1021,1 hPa 0,0 l/m 0,0 km/h (0 Bft) N 360 11,0 C 15,6 C 0,0 km/h (0 Bft)
20.07.2019 03:30 19,2 C 15,6 C 14,8 C 68 % 1021,1 hPa 0,0 l/m 0,0 km/h (0 Bft) N 360 11,0 C 15,6 C 0,0 km/h (0 Bft)
20.07.2019 03:28 19,2 C 15,6 C 14,8 C 68 % 1021,1 hPa 0,0 l/m 0,0 km/h (0 Bft) N 360 11,0 C 15,6 C 0,0 km/h (0 Bft)
20.07.2019 03:26 19,2 C 15,6 C 14,8 C 68 % 1021,1 hPa 0,0 l/m 0,0 km/h (0 Bft) N 360 11,0 C 15,6 C 0,0 km/h (0 Bft)
20.07.2019 03:24 19,4 C 15,6 C 14,8 C 68 % 1021,1 hPa 0,0 l/m 0,0 km/h (0 Bft) N 360 11,0 C 15,6 C 0,0 km/h (0 Bft)
20.07.2019 03:22 19,4 C 15,7 C 14,9 C 68 % 1021,1 hPa 0,0 l/m 0,0 km/h (0 Bft) N 360 11,1 C 15,7 C 0,0 km/h (0 Bft)
20.07.2019 03:20 19,2 C 15,7 C 14,9 C 68 % 1021,2 hPa 0,0 l/m 0,0 km/h (0 Bft) N 360 11,1 C 15,7 C 0,0 km/h (0 Bft)
20.07.2019 03:18 19,2 C 15,7 C 14,9 C 68 % 1021,2 hPa 0,0 l/m 0,0 km/h (0 Bft) N 360 11,1 C 15,7 C 0,0 km/h (0 Bft)
20.07.2019 03:16 19,2 C 15,7 C 14,8 C 68 % 1021,2 hPa 0,0 l/m 0,0 km/h (0 Bft) N 360 11,1 C 15,7 C 0,0 km/h (0 Bft)
20.07.2019 03:14 19,2 C 15,7 C 14,9 C 68 % 1021,2 hPa 0,0 l/m 0,0 km/h (0 Bft) N 360 11,1 C 15,7 C 0,0 km/h (0 Bft)
20.07.2019 03:12 19,2 C 15,7 C 14,8 C 68 % 1021,2 hPa 0,0 l/m 0,0 km/h (0 Bft) N 360 11,1 C 15,7 C 0,0 km/h (0 Bft)
20.07.2019 03:10 19,4 C 15,8 C 14,9 C 68 % 1021,2 hPa 0,0 l/m 0,0 km/h (0 Bft) N 360 11,2 C 15,8 C 0,0 km/h (0 Bft)
20.07.2019 03:08 19,4 C 15,8 C 15,0 C 68 % 1021,2 hPa 0,0 l/m 0,0 km/h (0 Bft) N 360 11,2 C 15,8 C 0,0 km/h (0 Bft)
20.07.2019 03:06 19,4 C 15,9 C 14,9 C 68 % 1021,2 hPa 0,0 l/m 0,0 km/h (0 Bft) N 360 11,3 C 15,9 C 0,0 km/h (0 Bft)
20.07.2019 03:04 19,4 C 15,9 C 14,9 C 68 % 1021,2 hPa 0,0 l/m 0,0 km/h (0 Bft) N 360 11,3 C 15,9 C 0,0 km/h (0 Bft)
20.07.2019 03:02 19,4 C 15,9 C 14,9 C 68 % 1021,2 hPa 0,0 l/m 0,0 km/h (0 Bft) N 360 11,3 C 15,9 C 0,0 km/h (0 Bft)
20.07.2019 03:00 19,4 C 15,9 C 14,9 C 68 % 1021,2 hPa 0,0 l/m 0,0 km/h (0 Bft) N 360 11,3 C 15,9 C 0,0 km/h (0 Bft)
20.07.2019 02:58 19,4 C 15,9 C 14,8 C 68 % 1021,2 hPa 0,0 l/m 0,0 km/h (0 Bft) N 360 11,3 C 15,9 C 0,0 km/h (0 Bft)
20.07.2019 02:56 19,4 C 15,9 C 14,9 C 68 % 1021,2 hPa 0,0 l/m 0,0 km/h (0 Bft) N 360 11,3 C 15,9 C 0,0 km/h (0 Bft)
20.07.2019 02:54 19,4 C 16,0 C 14,9 C 68 % 1021,2 hPa 0,0 l/m 0,0 km/h (0 Bft) N 360 11,4 C 16,0 C 0,0 km/h (0 Bft)
20.07.2019 02:52 19,4 C 16,0 C 14,9 C 68 % 1021,2 hPa 0,0 l/m 0,0 km/h (0 Bft) N 360 11,4 C 16,0 C 0,0 km/h (0 Bft)
20.07.2019 02:50 19,4 C 16,0 C 14,9 C 68 % 1021,2 hPa 0,0 l/m 0,0 km/h (0 Bft) N 360 11,4 C 16,0 C 0,0 km/h (0 Bft)
20.07.2019 02:48 19,4 C 16,0 C 14,9 C 68 % 1021,2 hPa 0,0 l/m 0,0 km/h (0 Bft) N 360 11,4 C 16,0 C 0,0 km/h (0 Bft)
20.07.2019 02:46 19,4 C 16,0 C 15,0 C 68 % 1021,2 hPa 0,0 l/m 0,0 km/h (0 Bft) N 360 11,4 C 16,0 C 0,0 km/h (0 Bft)
20.07.2019 02:44 19,4 C 16,2 C 15,0 C 68 % 1021,2 hPa 0,0 l/m 0,0 km/h (0 Bft) N 360 11,6 C 16,2 C 0,0 km/h (0 Bft)
20.07.2019 02:42 19,4 C 16,2 C 15,0 C 68 % 1021,2 hPa 0,0 l/m 0,0 km/h (0 Bft) N 360 11,6 C 16,2 C 0,0 km/h (0 Bft)
20.07.2019 02:40 19,4 C 16,2 C 14,9 C 68 % 1021,4 hPa 0,0 l/m 0,0 km/h (0 Bft) N 360 11,6 C 16,2 C 0,0 km/h (0 Bft)
20.07.2019 02:38 19,4 C 16,2 C 15,0 C 68 % 1021,4 hPa 0,0 l/m 0,0 km/h (0 Bft) N 360 11,6 C 16,2 C 0,0 km/h (0 Bft)
20.07.2019 02:36 19,4 C 16,2 C 15,1 C 68 % 1021,4 hPa 0,0 l/m 0,0 km/h (0 Bft) N 360 11,6 C 16,2 C 0,0 km/h (0 Bft)
20.07.2019 02:34 19,4 C 16,2 C 15,1 C 68 % 1021,4 hPa 0,0 l/m 0,0 km/h (0 Bft) N 360 11,6 C 16,2 C 0,0 km/h (0 Bft)
20.07.2019 02:32 19,4 C 16,3 C 15,1 C 68 % 1021,4 hPa 0,0 l/m 0,0 km/h (0 Bft) N 360 11,7 C 16,3 C 0,0 km/h (0 Bft)
20.07.2019 02:30 19,4 C 16,3 C 15,1 C 68 % 1021,4 hPa 0,0 l/m 0,0 km/h (0 Bft) N 360 11,7 C 16,3 C 0,0 km/h (0 Bft)
20.07.2019 02:28 19,4 C 16,4 C 15,2 C 68 % 1021,4 hPa 0,0 l/m 0,0 km/h (0 Bft) N 360 11,8 C 16,4 C 0,0 km/h (0 Bft)
20.07.2019 02:26 19,4 C 16,4 C 15,3 C 68 % 1021,4 hPa 0,0 l/m 0,0 km/h (0 Bft) N 360 11,8 C 16,4 C 0,0 km/h (0 Bft)
20.07.2019 02:24 19,4 C 16,5 C 15,3 C 68 % 1021,4 hPa 0,0 l/m 0,0 km/h (0 Bft) N 360 11,8 C 16,5 C 0,0 km/h (0 Bft)
20.07.2019 02:22 19,4 C 16,5 C 15,3 C 68 % 1021,4 hPa 0,0 l/m 0,0 km/h (0 Bft) N 360 11,8 C 16,5 C 0,0 km/h (0 Bft)
20.07.2019 02:20 19,4 C 16,5 C 15,3 C 68 % 1021,6 hPa 0,0 l/m 0,0 km/h (0 Bft) N 360 11,8 C 16,5 C 0,0 km/h (0 Bft)
20.07.2019 02:18 19,4 C 16,5 C 15,3 C 68 % 1021,6 hPa 0,0 l/m 0,0 km/h (0 Bft) N 360 11,8 C 16,5 C 0,0 km/h (0 Bft)
20.07.2019 02:16 19,4 C 16,5 C 15,3 C 68 % 1021,6 hPa 0,0 l/m 0,0 km/h (0 Bft) N 360 11,8 C 16,5 C 0,0 km/h (0 Bft)
20.07.2019 02:14 19,4 C 16,5 C 15,3 C 68 % 1021,6 hPa 0,0 l/m 0,0 km/h (0 Bft) N 360 11,8 C 16,5 C 0,0 km/h (0 Bft)
20.07.2019 02:12 19,4 C 16,5 C 15,3 C 68 % 1021,6 hPa 0,0 l/m 0,0 km/h (0 Bft) N 360 11,8 C 16,5 C 0,0 km/h (0 Bft)
20.07.2019 02:10 19,4 C 16,5 C 15,3 C 68 % 1021,6 hPa 0,0 l/m 0,0 km/h (0 Bft) N 360 11,8 C 16,5 C 0,0 km/h (0 Bft)
20.07.2019 02:08 19,4 C 16,5 C 15,3 C 68 % 1021,6 hPa 0,0 l/m 0,0 km/h (0 Bft) N 360 11,8 C 16,5 C 0,0 km/h (0 Bft)
20.07.2019 02:06 19,4 C 16,6 C 15,4 C 68 % 1021,6 hPa 0,0 l/m 0,0 km/h (0 Bft) N 360 11,9 C 16,6 C 0,0 km/h (0 Bft)
20.07.2019 02:04 19,4 C 16,6 C 15,4 C 68 % 1021,6 hPa 0,0 l/m 0,0 km/h (0 Bft) N 360 11,9 C 16,6 C 0,0 km/h (0 Bft)
20.07.2019 02:02 19,4 C 16,7 C 15,4 C 68 % 1021,6 hPa 0,0 l/m 0,0 km/h (0 Bft) N 360 12,0 C 16,7 C 0,0 km/h (0 Bft)
20.07.2019 02:00 19,4 C 16,7 C 15,5 C 68 % 1021,5 hPa 0,0 l/m 0,0 km/h (0 Bft) N 360 12,0 C 16,7 C 0,0 km/h (0 Bft)
20.07.2019 01:58 19,4 C 16,8 C 15,4 C 68 % 1021,5 hPa 0,0 l/m 0,0 km/h (0 Bft) N 360 12,1 C 16,8 C 0,0 km/h (0 Bft)
20.07.2019 01:56 19,4 C 16,8 C 15,5 C 68 % 1021,5 hPa 0,0 l/m 0,0 km/h (0 Bft) N 360 12,1 C 16,8 C 0,0 km/h (0 Bft)
20.07.2019 01:54 19,4 C 16,8 C 15,5 C 68 % 1021,5 hPa 0,0 l/m 0,0 km/h (0 Bft) N 360 12,1 C 16,8 C 0,0 km/h (0 Bft)
20.07.2019 01:52 19,4 C 16,9 C 15,6 C 68 % 1021,5 hPa 0,0 l/m 0,0 km/h (0 Bft) N 360 12,2 C 16,9 C 0,0 km/h (0 Bft)
20.07.2019 01:50 19,4 C 16,9 C 15,6 C 68 % 1021,5 hPa 0,0 l/m 0,0 km/h (0 Bft) N 360 12,2 C 16,9 C 0,0 km/h (0 Bft)
20.07.2019 01:48 19,4 C 17,0 C 15,6 C 68 % 1021,5 hPa 0,0 l/m 0,0 km/h (0 Bft) N 360 12,3 C 17,0 C 0,0 km/h (0 Bft)
20.07.2019 01:46 19,4 C 17,0 C 15,7 C 68 % 1021,5 hPa 0,0 l/m 0,0 km/h (0 Bft) N 360 12,3 C 17,0 C 0,0 km/h (0 Bft)
20.07.2019 01:44 19,4 C 17,0 C 15,7 C 68 % 1021,5 hPa 0,0 l/m 0,0 km/h (0 Bft) N 360 12,3 C 17,0 C 0,0 km/h (0 Bft)
20.07.2019 01:42 19,4 C 17,0 C 15,7 C 68 % 1021,5 hPa 0,0 l/m 0,0 km/h (0 Bft) N 360 12,3 C 17,0 C 0,0 km/h (0 Bft)
20.07.2019 01:40 19,4 C 17,0 C 15,6 C 68 % 1021,4 hPa 0,0 l/m 0,0 km/h (0 Bft) N 360 12,3 C 17,0 C 0,0 km/h (0 Bft)
20.07.2019 01:38 19,4 C 17,0 C 15,7 C 68 % 1021,4 hPa 0,0 l/m 0,0 km/h (0 Bft) N 360 12,3 C 17,0 C 0,0 km/h (0 Bft)
20.07.2019 01:36 19,4 C 17,1 C 15,7 C 68 % 1021,4 hPa 0,0 l/m 0,0 km/h (0 Bft) N 360 12,4 C 17,1 C 0,0 km/h (0 Bft)
20.07.2019 01:34 19,4 C 17,3 C 15,7 C 68 % 1021,4 hPa 0,0 l/m 0,0 km/h (0 Bft) N 360 12,6 C 17,3 C 0,0 km/h (0 Bft)
20.07.2019 01:32 19,4 C 17,3 C 15,7 C 68 % 1021,4 hPa 0,0 l/m 0,0 km/h (0 Bft) N 360 12,6 C 17,3 C 0,0 km/h (0 Bft)
20.07.2019 01:30 19,4 C 17,3 C 15,7 C 68 % 1021,4 hPa 0,0 l/m 0,0 km/h (0 Bft) N 360 12,6 C 17,3 C 0,0 km/h (0 Bft)
20.07.2019 01:28 19,4 C 17,3 C 15,7 C 68 % 1021,4 hPa 0,0 l/m 0,0 km/h (0 Bft) N 360 12,6 C 17,3 C 0,0 km/h (0 Bft)
20.07.2019 01:26 19,4 C 17,3 C 15,6 C 68 % 1021,4 hPa 0,0 l/m 0,0 km/h (0 Bft) N 360 12,6 C 17,3 C 0,0 km/h (0 Bft)
20.07.2019 01:24 19,4 C 17,3 C 15,8 C 68 % 1021,4 hPa 0,0 l/m 0,0 km/h (0 Bft) N 360 12,6 C 17,3 C 0,0 km/h (0 Bft)
20.07.2019 01:22 19,4 C 17,3 C 15,8 C 68 % 1021,4 hPa 0,0 l/m 0,0 km/h (0 Bft) N 360 12,6 C 17,3 C 0,0 km/h (0 Bft)
20.07.2019 01:20 19,4 C 17,3 C 15,8 C 68 % 1021,6 hPa 0,0 l/m 0,0 km/h (0 Bft) N 360 12,6 C 17,3 C 0,0 km/h (0 Bft)
20.07.2019 01:18 19,4 C 17,4 C 15,8 C 68 % 1021,6 hPa 0,0 l/m 0,0 km/h (0 Bft) N 360 12,7 C 17,4 C 0,0 km/h (0 Bft)
20.07.2019 01:16 19,4 C 17,5 C 15,9 C 68 % 1021,6 hPa 0,0 l/m 0,0 km/h (0 Bft) N 360 12,8 C 17,5 C 0,0 km/h (0 Bft)
20.07.2019 01:14 19,4 C 17,5 C 16,0 C 68 % 1021,6 hPa 0,0 l/m 0,0 km/h (0 Bft) N 360 12,8 C 17,5 C 0,0 km/h (0 Bft)
20.07.2019 01:12 19,4 C 17,5 C 16,1 C 68 % 1021,6 hPa 0,0 l/m 0,0 km/h (0 Bft) N 360 12,8 C 17,5 C 0,0 km/h (0 Bft)
20.07.2019 01:10 19,4 C 17,5 C 16,2 C 68 % 1021,6 hPa 0,0 l/m 0,0 km/h (0 Bft) N 360 12,8 C 17,5 C 0,0 km/h (0 Bft)
20.07.2019 01:08 19,4 C 17,5 C 16,2 C 68 % 1021,6 hPa 0,0 l/m 0,0 km/h (0 Bft) N 360 12,8 C 17,5 C 0,0 km/h (0 Bft)
20.07.2019 01:06 19,4 C 17,5 C 16,2 C 68 % 1021,6 hPa 0,0 l/m 0,0 km/h (0 Bft) N 360 12,8 C 17,5 C 0,0 km/h (0 Bft)
20.07.2019 01:04 19,4 C 17,7 C 16,3 C 68 % 1021,6 hPa 0,0 l/m 0,0 km/h (0 Bft) N 360 13,0 C 17,7 C 0,0 km/h (0 Bft)
20.07.2019 01:02 19,4 C 17,7 C 16,5 C 68 % 1021,6 hPa 0,0 l/m 0,0 km/h (0 Bft) N 360 13,0 C 17,7 C 0,0 km/h (0 Bft)
20.07.2019 01:00 19,4 C 17,7 C 16,4 C 68 % 1021,4 hPa 0,0 l/m 0,0 km/h (0 Bft) N 360 13,0 C 17,7 C 0,0 km/h (0 Bft)
20.07.2019 00:58 19,4 C 17,7 C 16,2 C 68 % 1021,4 hPa 0,0 l/m 0,0 km/h (0 Bft) N 360 13,0 C 17,7 C 0,0 km/h (0 Bft)
20.07.2019 00:56 19,4 C 17,7 C 16,2 C 68 % 1021,4 hPa 0,0 l/m 0,0 km/h (0 Bft) N 360 13,0 C 17,7 C 0,0 km/h (0 Bft)
20.07.2019 00:54 19,4 C 17,7 C 16,2 C 68 % 1021,4 hPa 0,0 l/m 0,0 km/h (0 Bft) N 360 13,0 C 17,7 C 0,0 km/h (0 Bft)
20.07.2019 00:52 19,4 C 17,8 C 16,2 C 68 % 1021,4 hPa 0,0 l/m 0,0 km/h (0 Bft) N 360 13,1 C 17,8 C 0,0 km/h (0 Bft)
20.07.2019 00:50 19,4 C 17,8 C 16,2 C 68 % 1021,4 hPa 0,0 l/m 0,0 km/h (0 Bft) N 360 13,1 C 17,8 C 0,0 km/h (0 Bft)
20.07.2019 00:48 19,4 C 17,9 C 16,3 C 68 % 1021,4 hPa 0,0 l/m 0,0 km/h (0 Bft) N 360 13,2 C 17,9 C 0,0 km/h (0 Bft)
20.07.2019 00:46 19,4 C 18,0 C 16,4 C 68 % 1021,4 hPa 0,0 l/m 0,0 km/h (0 Bft) N 360 13,3 C 18,0 C 0,0 km/h (0 Bft)
20.07.2019 00:44 19,4 C 18,0 C 16,4 C 68 % 1021,4 hPa 0,0 l/m 0,0 km/h (0 Bft) N 360 13,3 C 18,0 C 0,0 km/h (0 Bft)
20.07.2019 00:42 19,4 C 17,7 C 16,3 C 68 % 1021,4 hPa 0,0 l/m 0,0 km/h (0 Bft) N 360 13,0 C 17,7 C 0,0 km/h (0 Bft)
20.07.2019 00:40 19,4 C 17,7 C 16,4 C 68 % 1021,6 hPa 0,0 l/m 0,0 km/h (0 Bft) N 360 13,0 C 17,7 C 0,0 km/h (0 Bft)
20.07.2019 00:38 19,4 C 17,8 C 16,4 C 68 % 1021,6 hPa 0,0 l/m 0,0 km/h (0 Bft) N 360 13,1 C 17,8 C 0,0 km/h (0 Bft)
20.07.2019 00:36 19,4 C 17,8 C 16,5 C 68 % 1021,6 hPa 0,0 l/m 0,0 km/h (0 Bft) N 360 13,1 C 17,8 C 0,0 km/h (0 Bft)
20.07.2019 00:34 19,4 C 17,9 C 16,6 C 68 % 1021,6 hPa 0,0 l/m 0,0 km/h (0 Bft) N 360 13,0 C 17,9 C 0,0 km/h (0 Bft)
20.07.2019 00:32 19,5 C 17,9 C 16,6 C 68 % 1021,6 hPa 0,0 l/m 0,0 km/h (0 Bft) N 360 13,0 C 17,9 C 0,0 km/h (0 Bft)
20.07.2019 00:30 19,5 C 18,0 C 16,7 C 68 % 1021,6 hPa 0,0 l/m 0,0 km/h (0 Bft) N 360 13,1 C 18,0 C 0,0 km/h (0 Bft)
20.07.2019 00:28 19,4 C 18,1 C 16,8 C 68 % 1021,6 hPa 0,0 l/m 0,0 km/h (0 Bft) N 360 13,2 C 18,1 C 0,0 km/h (0 Bft)
20.07.2019 00:26 19,4 C 18,1 C 16,9 C 68 % 1021,6 hPa 0,0 l/m 0,0 km/h (0 Bft) N 360 13,2 C 18,1 C 0,0 km/h (0 Bft)
20.07.2019 00:24 19,4 C 18,1 C 17,0 C 68 % 1021,6 hPa 0,0 l/m 0,0 km/h (0 Bft) N 360 13,2 C 18,1 C 0,0 km/h (0 Bft)
20.07.2019 00:22 19,4 C 18,2 C 17,1 C 68 % 1021,6 hPa 0,0 l/m 0,0 km/h (0 Bft) N 360 13,3 C 18,2 C 0,0 km/h (0 Bft)
20.07.2019 00:20 19,4 C 18,2 C 17,2 C 68 % 1021,7 hPa 0,0 l/m 0,0 km/h (0 Bft) N 360 13,3 C 18,2 C 0,0 km/h (0 Bft)
20.07.2019 00:18 19,4 C 18,2 C 17,2 C 68 % 1021,7 hPa 0,0 l/m 0,0 km/h (0 Bft) N 360 13,3 C 18,2 C 0,0 km/h (0 Bft)
20.07.2019 00:16 19,5 C 18,1 C 17,2 C 68 % 1021,7 hPa 0,0 l/m 0,0 km/h (0 Bft) N 360 13,2 C 18,1 C 0,0 km/h (0 Bft)
20.07.2019 00:14 19,5 C 18,1 C 17,1 C 68 % 1021,7 hPa 0,0 l/m 0,0 km/h (0 Bft) N 360 13,2 C 18,1 C 0,0 km/h (0 Bft)
20.07.2019 00:12 19,4 C 18,1 C 17,1 C 68 % 1021,7 hPa 0,0 l/m 0,0 km/h (0 Bft) N 360 13,0 C 18,1 C 0,0 km/h (0 Bft)
20.07.2019 00:10 19,5 C 18,1 C 17,1 C 68 % 1021,7 hPa 0,0 l/m 0,0 km/h (0 Bft) N 360 13,0 C 18,1 C 0,0 km/h (0 Bft)
20.07.2019 00:08 19,5 C 18,2 C 17,2 C 68 % 1021,7 hPa 0,0 l/m 0,0 km/h (0 Bft) N 360 13,1 C 18,2 C 0,0 km/h (0 Bft)
20.07.2019 00:06 19,5 C 18,2 C 17,2 C 68 % 1021,7 hPa 0,0 l/m 0,0 km/h (0 Bft) N 360 13,1 C 18,2 C 0,0 km/h (0 Bft)
20.07.2019 00:04 19,4 C 18,2 C 17,2 C 68 % 1021,7 hPa 0,0 l/m 0,0 km/h (0 Bft) N 360 13,1 C 18,2 C 0,0 km/h (0 Bft)
20.07.2019 00:02 19,5 C 18,3 C 17,3 C 68 % 1021,7 hPa 0,0 l/m 0,0 km/h (0 Bft) N 360 13,2 C 18,3 C 0,0 km/h (0 Bft)
20.07.2019 00:00 19,5 C 18,3 C 17,3 C 68 % 1021,7 hPa 0,0 l/m 0,0 km/h (0 Bft) N 360 13,2 C 18,3 C 0,0 km/h (0 Bft)
_ Min-Zeit 07:20 05:01 04:54 00:00 03:22 - 00:00 - - 05:01 05:01 00:00
Minimum _ 19,1 C 14,6 C 14,1 C 68 % 1021,1 hPa - 0,0 km/h (0 Bft) - - 10,0 C 14,6 C 0,0 km/h (0 Bft)
_ Max-Zeit 00:00 09:28 09:08 00:00 00:00 00:00 00:00 - - 09:28 09:28 00:00
Maximum _ 19,5 C 24,1 C 18,9 C 68 % 1021,7 hPa 0,0 l/m 0,0 km/h
N (0 Bft)
- - 19,2 C 24,1 C 0,0 km/h
N (0 Bft)
Durchschnitt _ 19,3 C 17,2 C 15,6 C 68 % 1021,3 hPa #0,0 l/m 0,0 km/h (0 Bft) - - - 12,5 C 17,2 C 0,0 km/h (0 Bft)